Location: Morse Shores
(26.6809°N, 81.7976°W)
Time: 11:05:34
(UTC+00:00)

Daily predictions for brighter satellites

Satellite Brightness Start Highest point End
(mag) Time Altitude Azimuth Time Altitude Azimuth Time Altitude Azimuth
H-2A ROCKET BODY 4.1 22:39:29 10° W 22:45:32 86° N 23:23:38 10° ESE
Centaur AC-146 3.5 23:23:12 10° SSW 23:24:32 14° SSE 23:26:11 10° SE
Okean-O 4.2 23:22:20 10° ESE 23:24:53 15° ENE 23:27:27 10° NE
Okean O Rocket 1.8 23:20:49 10° S 23:25:16 83° W 23:29:42 10° NNW
Mugunghwa Rocket 4.5 23:17:41 10° W 23:25:54 89° N 23:33:14 10° E
GOES 2 Rocket 4.1 23:21:51 10° W 23:27:38 83° N 23:35:30 10° E
GPS 2-14 Rocket1 4.1 23:24:38 10° WSW 23:28:19 33° S 23:32:03 10° ESE
Cosmos 1340 4.2 23:26:10 10° SE 23:28:39 17° E 23:31:09 10° NE
Cosmos 1689 Rocket 3.0 23:27:25 10° NE 23:29:53 26° E 23:32:21 10° SSE
Cosmos 1603 4.2 23:24:58 10° NNW 23:30:39 68° WSW 23:36:19 10° S
GPS 2-12 Rocket1 4.3 23:27:21 10° WSW 23:31:23 33° S 23:35:21 10° ESE
NOSS 2-1 (E) 3.1 23:29:46 10° SSW 23:33:30 59° ESE 23:36:46 10° NE
Cosmos 1455 3.4 23:31:29 10° NNE 23:34:30 22° E 23:37:31 10° SE
Cosmos 1602 Rocket 4.4 23:31:09 10° SSE 23:34:50 28° E 23:38:33 10° NNE
ATLAS 3B R/B 3.5 23:30:48 10° NW 23:37:50 62° WSW 23:45:05 10° SSE
Cosmos 1703 3.9 23:34:56 10° SSE 23:38:28 34° E 23:41:59 10° NNE
BREEZE-M DEB (TANK) 2.7 23:36:03 10° NW 23:38:55 45° NE 23:44:20 10° ESE
YAOGAN 1 3.7 23:36:00 10° ESE 23:39:15 21° ENE 23:42:30 10° NNE
Cosmos 1300 4.5 23:35:53 10° NNW 23:39:24 36° W 23:42:54 10° SSW
Aureole 3 4.0 23:37:53 10° NNE 23:40:07 18° E 23:42:17 10° SE
CZ-4B R/B 3.3 23:43:34 10° NNW 23:46:31 31° WNW 23:49:23 10° SW
ERS-2 2.1 23:42:53 10° N 23:46:32 86° WNW 23:50:08 10° SSW
Cosmos 2279 Rocket 4.5 23:40:49 10° NNW 23:47:01 67° W 23:53:10 10° S
Cosmos 990 Rocket 3.9 23:45:51 10° S 23:51:02 70° ESE 23:56:12 10° NNE
Meteor 2-1 Rocket 4.4 23:48:21 10° N 23:53:39 47° E 23:58:54 10° SSE
SJ 16-02 2.7 23:50:05 10° SW 23:54:14 41° WNW 23:58:23 10° N
SWIFT 3.7 23:51:16 10° WSW 23:55:07 33° S 23:58:58 10° ESE
